Regional Weather Roundup
Issued by NWS

Home | Current Version | Previous Version | Text Only | Print | Product List | Glossary On
Versions: 1 2 3 4 5 6 7 8 9 10 11 12 13 14 15 16 17 18 19 20 21 22 23 24 25 26 27 28 29 30 31 32 33 34 35 36 37 38 39 40 41 42 43 44 45 46 47 48 49 50
000
ASUS42 KTBW 271417
RWRFL
FLORIDA REGIONAL WEATHER ROUNDUP
NATIONAL WEATHER SERVICE TAMPA BAY RUSKIN FL
1000 AM EDT THU APR 27 2017

NOTE: "FAIR" INDICATES FEW OR NO CLOUDS BELOW 12,000 FEET WITH NO
SIGNIFICANT WEATHER AND/OR OBSTRUCTIONS TO VISIBILITY.

FLZ001>010-012>015-112-114-115-271500-
PANHANDLE FLORIDA

CITY           SKY/WX    TMP DP  RH WIND       PRES   REMARKS
PENSACOLA      CLOUDY    78  73  84 S17       29.79R
PENSACOLA NAS  PTSUNNY   78  73  84 S16       29.79S FOG
MILTON NAS     CLOUDY    76  74  93 S16G29    29.79
CRESTVIEW      LGT RAIN  77  71  82 S10G21    29.82R
DUKE FIELD     CLOUDY    76  71  85 S16G25    29.81R
VALPARAISO     CLOUDY    76  72  89 S15       29.82R FOG
MARY ESTHER    CLOUDY    76  71  84 S17G23    29.80R
TRI COUNTY     CLOUDY    77  72  84 S8G17     29.84R
PANAMA CITY    CLOUDY    78  72  81 S17G23    29.84S
TYNDALL AFB    PTSUNNY   76  73  88 S15       29.86F FOG
APALACHICOLA   PTSUNNY   78  75  90 S12       29.89R

STATION/POSITION SKY/WX   TEMP    WIND        PRES    WAVE   SWELL
                          AIR SEA DIR/SP/G            HT/PER HT/PER
                          (F)     (DEG/KT/KT) (MB)    (FT/S) (FT/S)
30.1N   87.6W              75 74  190/ 17/ 19 1008.3R   5/ 6
29.2N   88.2W              76 74  190/ 14/ 17 1009.3
28.8N   86.0W              75 74  180/ 10/ 10 1011.4R   4/ 6   3/ 6
PANAMA CITY BEAC           74 75  170/ 15/ 17 1011.1R
TOWER C                    73     190/ 14/ 16 1012.7R
28.5N   84.5W              74 73  170/ 14/ 17 1011.9R   3/ 6

$$
FLZ011-016>038-118-127-128-134-139-239-271500-
NORTH FLORIDA

CITY           SKY/WX    TMP DP  RH WIND       PRES   REMARKS
MARIANNA       PTSUNNY   80  71  74 S15G24    29.83S
TALLAHASSEE    PTSUNNY   79  70  74 SW16      29.89R
PERRY          PTSUNNY   78  70  76 S10G18    29.92S
CROSS CITY     SUNNY     79  70  73 S14       29.93R
LAKE CITY      FAIR      77  64  65 S12G18    29.94S
GAINESVILLE    SUNNY     80  63  55 S12       29.95R
WILLISTON      SUNNY     82  66  57 SE13      29.95S
PALATKA        FAIR      81  68  65 S9        29.97R
MAYPORT NAS    MOSUNNY   79  61  53 S13       29.95R
JACKSONVILLE   SUNNY     81  61  50 S12       29.93F
JAX NAS        MOSUNNY   78  64  61 S13       29.95S
FERNANDINA BEA FAIR      82  63  51 S8        29.93F
ST AUGUSTINE   SUNNY     82  63  52 S8        29.97R
PALM COAST     SUNNY     81  64  57 S6        29.97R

STATION/POSITION SKY/WX   TEMP    WIND        PRES    WAVE   SWELL
                          AIR SEA DIR/SP/G            HT/PER HT/PER
                          (F)     (DEG/KT/KT) (MB)    (FT/S) (FT/S)
SHELL POINT      NOT AVBL
KEATON BEACH               75     160/ 17/ 20 1012.3F
CEDAR KEY                  75     170/ 18/ 20 1014.0R
FERNANDINA                 80 74  170/  8/ 14 1014.6R
30.7N   81.3W                 73                N/A     3/ 9
MAYPORT                    79 74  190/  6/  9 1014.5R
31.4N   80.9W              73 72  190/  6/  8 1013.7R   3/ 5   3/ 5
ST AUGUSTINE               73 74  160/  8/  9 1015.7R

$$
FLZ040-043>046-052-053-057-058-063-144-271500-
INTERIOR CENTRAL FLORIDA

CITY           SKY/WX    TMP DP  RH WIND       PRES   REMARKS
OCALA          SUNNY     79  64  61 S12       29.96R
THE VILLAGES     N/A     81  72  74 MISG      29.87R
LEESBURG       SUNNY     79  72  79 S10       29.97S
SANFORD        MOSUNNY   80  70  71 S8        29.97R
ORLANDO EXEC   MOSUNNY   78  70  76 S10       29.97S
ORLANDO INTL   MOSUNNY   77  70  79 S12       29.97S
KISSIMMEE      MOSUNNY   79  71  76 SE8       29.98S
WINTER HAVEN   SUNNY     79  68  69 SE8       29.98R
LAKELAND       MOSUNNY   75  72  88 S7        29.98R
BARTOW         MOSUNNY   79  68  69 S5        29.97R
OKEECHOBEE     MOSUNNY   82  72  69 S10       29.97R

$$
FLZ041-047-054-059-064-141-147-271500-
EAST CENTRAL FLORIDA

CITY           SKY/WX    TMP DP  RH WIND       PRES   REMARKS
DAYTONA BEACH  SUNNY     78  70  76 S9        29.97R
DELAND         SUNNY     79  68  69 S6        29.97R
NEW SMYRNA BEA MOSUNNY   79  70  73 S9        29.98R
JFK SPACE CTR  PTSUNNY   79  72  78 SW10      29.96S
TITUSVILLE     MOSUNNY   82  72  69 S15       29.98R
CAPE CANAVERAL MOSUNNY   80  70  70 SW12      29.96R
PATRICK AFB    SUNNY     82  72  71 S8        29.97R
MELBOURNE      PTSUNNY   83  71  67 S10       29.97R
VERO BEACH     MOSUNNY   82  71  69 SE8       29.97R
FT PIERCE      MOSUNNY   84  73  69 S7        29.96R
STUART         MOSUNNY   86  75  70 SE9       29.97R HX  95

STATION/POSITION SKY/WX   TEMP    WIND        PRES    WAVE   SWELL
                          AIR SEA DIR/SP/G            HT/PER HT/PER
                          (F)     (DEG/KT/KT) (MB)    (FT/S) (FT/S)
28.5N   80.2W              76 76  210/  6/  6 1016.0R   3/ 8   3/ 8
28.9N   78.5W              77 78  160/ 16/ 17 1015.4R   5/ 8   3/ 8
TRIDENT PIER               78 77  210/  9/ 11 1016.4R
28.4N   80.5W                 76                N/A     2/ 4
27.5N   80.2W                 77                N/A     3/13   2/13

$$
FLZ050-056-061-142-242-148-248-149-249-151-251-155-255-
160-260-271500-
WEST CENTRAL FLORIDA

CITY           SKY/WX    TMP DP  RH WIND       PRES   REMARKS
CRYSTAL RIVER  FAIR      81  68  65 S6        29.96R
INVERNESS      FAIR      81  70  69 SE9       29.96R
BROOKSVILLE    SUNNY     82  70  66 S13       29.97R
CLEARWATER AIR FAIR      79  70  73 S6        29.95R
ST PETE CLEARW MOSUNNY   78  71  79 SE10      29.95R
TAMPA INTL     MOSUNNY   78  71  79 S9        29.96R
TAMPA EXEC     MOSUNNY   82  70  65 S9        29.96S
PLANT CITY     MOSUNNY   81  73  78 S6        29.99R HAZE
MACDILL AFB    CLOUDY    75  75 100 S9        29.96R
PETER O KNIGHT CLOUDY    81  73  78 S7        29.96S
ST PETERSBURG  CLOUDY    75  72  90 S8        29.94R
SARASOTA       PTSUNNY   76  71  85 S8        29.94R
VENICE         CLOUDY    81  73  78 S12       29.96R

STATION/POSITION SKY/WX   TEMP    WIND        PRES    WAVE   SWELL
                          AIR SEA DIR/SP/G            HT/PER HT/PER
                          (F)     (DEG/KT/KT) (MB)    (FT/S) (FT/S)
27.3N   84.2W                 74                N/A     3/ 6
CLEARWATER BEACH           78 77  160/ 10/ 14 1014.2R
MIDDLE TAMPA BAY           75     160/  7/  9 1014.6R
VENICE                     74 77  130/  8/ 10 1013.4R

$$
FLZ066-069-070-075>078-162-262-165-265-271500-
SOUTHWEST FLORIDA AND KEYS

CITY           SKY/WX    TMP DP  RH WIND       PRES   REMARKS
PUNTA GORDA    PTSUNNY   80  73  79 S8        29.97R
FT MYERS       MOSUNNY   79  74  84 S8        29.94S
SOUTHWEST INTL PTSUNNY   78  73  84 SE10      29.95S
NAPLES         PTSUNNY   80  74  81 SE9       29.94S
IMMOKALEE      PTSUNNY   81  73  78 SE10      29.94S
MARATHON       SUNNY     84  75  74 VRB5      29.94R
KEY WEST NAS   MOSUNNY   81  74  79 S7        29.94R
KEY WEST INTL  SUNNY     81  74  79 S6        29.94R

STATION/POSITION SKY/WX   TEMP    WIND        PRES    WAVE   SWELL
                          AIR SEA DIR/SP/G            HT/PER HT/PER
                          (F)     (DEG/KT/KT) (MB)    (FT/S) (FT/S)
NAPLES                        77  150/  5/ 10 1013.9R
26.0N   85.6W              80     170/ 14/ 16 1011.6
DRY TORTUGAS               78     150/ 11/ 12 1013.7R
SAND KEY                   79     200/  5/  6 1014.3R
LONG KEY                   80 80  190/  6/  7 1014.3R
MOLASSES REEF              79 78  190/  7/  7 1014.5R

$$
FLZ067-068-071>074-168-172>174-271500-
SOUTHEAST FLORIDA

CITY           SKY/WX    TMP DP  RH WIND       PRES   REMARKS
W PALM BEACH   PTSUNNY   83  71  67 SE12      29.97R
BOCA RATON     SUNNY     82  72  69 SE12      29.96R
FT LAUDER-EXEC MOSUNNY   86  68  54 SE10      29.95R
FT LAUDERDALE  MOSUNNY   83  70  64 SE16      29.95R
POMPANO BEACH  SUNNY     83  71  67 SE10      29.95R
PEMBROKE PINES SUNNY     84  69  60 SE14      29.97R
OPA LOCKA      SUNNY     82  70  66 SE12      29.96R
MIAMI          MOSUNNY   84  72  67 SE10      29.96R
WEST KENDALL   SUNNY     84  71  65 SE7       29.95R
HOMESTEAD      MOSUNNY   84  76  79 E10       29.94R

STATION/POSITION SKY/WX   TEMP    WIND        PRES    WAVE   SWELL
                          AIR SEA DIR/SP/G            HT/PER HT/PER
                          (F)     (DEG/KT/KT) (MB)    (FT/S) (FT/S)
PORT EVERGLADES            80     130/  7/  8 1014.4R
VIRGINIA KEY               80 79  110/ 10/ 12 1013.6R
LAKE WORTH                 78 78  140/ 10/ 12 1015.5R
FOWEY ROCKS                79 77  120/ 15/ 15 1014.8R
SETTLEMENT POINT           80     150/ 11/ 14 1015.2R

$$




USA.gov is the U.S. government's official web portal to all federal, state and local government web resources and services.